Regional Weather Roundup
Issued by NWS

Home | Current Version | Previous Version | Text Only | Print | Product List | Glossary On
Versions: 1 2 3 4 5 6 7 8 9 10 11 12 13 14 15 16 17 18 19 20 21 22 23 24 25 26 27 28 29 30 31 32 33 34 35 36 37 38 39 40 41 42 43 44 45 46 47 48 49 50
099
ASUS45 KCYS 232310
RWRWY

WYOMING REGIONAL WEATHER ROUNDUP
NATIONAL WEATHER SERVICE CHEYENNE WY
500 PM MDT SUN JUL 23 2017

NOTE:  "FAIR" INDICATES FEW OR NO CLOUDS BELOW 12,000 FEET
WITH NO SIGNIFICANT WEATHER AND/OR OBSTRUCTIONS TO VISIBILITY.

WYZ001-240000-
YELLOWSTONE NATIONAL PARK

CITY           SKY/WX    TMP DP  RH WIND       PRES   REMARKS
LK YELLOWSTONE   N/A     68  48  48 CALM      30.30F
W YELLOWSTONE  NOT AVBL

$$
WYZ002>013-054>058-071-098>099-240000-
NORTHERN WYOMING

CITY           SKY/WX    TMP DP  RH WIND       PRES   REMARKS
JACKSON        SUNNY     82  36  18 S9        30.19F
CODY           FAIR      87  35  15 SW7       30.04F
GREYBULL       FAIR      94  29  10 SE3       29.92F
WORLAND        FAIR      95  31  10 CALM      29.93F
SHERIDAN       FAIR      93  37  14 N7        29.96F
BUFFALO        FAIR      94  37  13 NE9       30.03F
GILLETTE       FAIR      93  39  15 S9G16     29.98F
HULETT         FAIR      91  41  17 CALM      30.02F
NEWCASTLE      FAIR      91  34  13 S7        30.03F

$$
WYZ014>020-022>026-101>103-240000-
CENTRAL WYOMING

CITY           SKY/WX    TMP DP  RH WIND       PRES   REMARKS
BIG PINEY      FAIR      84  36  18 W16G23    30.24F
PINEDALE       FAIR      81  32  17 NW13G18   30.25F
DUBOIS         FAIR      81  25  12 N15G25    30.22F
LANDER         FAIR      89  36  15 NE5       30.08F
RIVERTON       FAIR      91  25   9 W7        30.06F
CASPER         FAIR      95  32  11 SE9       30.04F HX  90
DOUGLAS        FAIR      95  36  12 SE12G21   30.05F HX  90

$$
WYZ021-027>030-104>119-240000-
SOUTHERN WYOMING

CITY           SKY/WX    TMP DP  RH WIND       PRES   REMARKS
EVANSTON       FAIR      84  32  15 N17       30.23F
KEMMERER         N/A     81  28  15 NW12      30.26F
FORT BRIDGER   FAIR      82  35  18 S20       30.26F
ROCK SPRINGS   FAIR      87  18   8 W13       30.18F
RAWLINS        FAIR      91  21   8 W8        30.17F
SARATOGA       FAIR      86  25  10 CALM      30.21F
LARAMIE        FAIR      81  45  28 S20G25    30.24F
CHEYENNE       FAIR      87  42  20 S9G21     30.18F
TORRINGTON     FAIR      94  47  20 SE12      30.01F HX  90
PINE BLUFFS    FAIR      90  39  17 SE8       30.11F

$$




USA.gov is the U.S. government's official web portal to all federal, state and local government web resources and services.